Flag for Germany Weather past 2 weeks in Halle, Saxony-Anhalt, Germany

Now
61 °F

Sprinkles. Partly cloudy.


Feels Like: 61 °F
Forecast: 56 / 64 °F
Wind: 6 mph from Southwest

Location: Leipzig-Schkeuditz

Current Time: Aug 31, 2014 at 12:32:48 AM

Latest Report: Aug 31, 2014 at 12:20 AM


Visibility: N/A

Pressure: 30.01 "Hg

Humidity: 94%

Dew point: 59 °F

Location of HalleLocation

Historic Weather in Halle — Graph

°F

Halle temperature yesterday

Maximum temperature yesterday: 72 °F (at 4:20 PM)
Minimum temperature yesterday: 61 °F (at 3:20 AM)
Average temperature yesterday: 65 °F

Past Weeks' High & Low Weather Summary

 TemperatureHumidityPressure
High73 °F (Aug 28, 3:50 PM)100% (Aug 16, 12:50 AM)30.09 "Hg (Aug 16, 12:50 AM)
Low48 °F (Aug 20, 3:50 AM)35% (Aug 22, 2:20 PM)29.68 "Hg (Aug 18, 11:20 AM)
Average59 °F74%29.93 "Hg
* Reported Aug 15 11:20 PM — Aug 30 11:20 PM, Halle, Weather by CustomWeather, © 2014

Note: Actual official high and low records may vary slightly from our data, if they occured in-between our weather recording intervals... More about our weather records

Advertising

Halle weather history for previous 24 hours

 ConditionsComfort  
Time TempWeatherWind HumidityBarometerVisibility
11:20 PM
Aug 30
64 °FLight rain. Clear.7 mph73%30.01 "HgN/A
10:50 PM64 °FClear.7 mph73%30.01 "Hg10 mi
10:20 PM64 °FClear.7 mph73%30.01 "Hg10 mi
9:50 PM64 °FClear.6 mph73%30.01 "Hg10 mi
9:20 PM64 °FClear.6 mph78%30.01 "Hg10 mi
8:50 PM64 °FLight rain. Clear.8 mph78%30.01 "HgN/A
8:20 PM66 °FSunny.8 mph68%30.01 "Hg10 mi
7:20 PM66 °FSunny.10 mph68%30.01 "Hg10 mi
6:50 PM68 °FPartly sunny.9 mph64%30.01 "HgN/A
6:20 PM68 °FPartly sunny.12 mph64%30.01 "HgN/A
5:50 PM70 °FPartly sunny.10 mph57%30.01 "HgN/A
5:20 PM70 °FPartly sunny.15 mph60%30.01 "HgN/A
4:50 PM70 °FBroken clouds.15 mph57%30.01 "HgN/A
4:20 PM72 °FPartly sunny.15 mph57%30.01 "HgN/A
3:50 PM70 °FBroken clouds.12 mph60%30.04 "HgN/A
3:20 PM70 °FBroken clouds.15 mph60%30.04 "HgN/A
2:50 PM70 °FBroken clouds.13 mph57%30.04 "HgN/A
2:20 PM70 °FBroken clouds.16 mph57%30.04 "HgN/A
1:50 PM68 °FPartly sunny.13 mph64%30.04 "HgN/A
1:20 PM68 °FLight rain. Partly sunny.12 mph64%30.04 "HgN/A
12:50 PM68 °FPartly sunny.14 mph60%30.04 "HgN/A
12:20 PM68 °FBroken clouds.15 mph64%30.04 "HgN/A
11:50 AM68 °FPartly sunny.9 mph69%30.04 "HgN/A
11:20 AM68 °FPartly sunny.9 mph69%30.04 "HgN/A
10:50 AM66 °FScattered clouds.10 mph73%30.04 "HgN/A
10:20 AM66 °FPassing clouds.10 mph83%30.04 "HgN/A
9:50 AM66 °FPassing clouds.10 mph78%30.04 "HgN/A
9:20 AM64 °FPassing clouds.9 mph88%30.04 "HgN/A
8:50 AM63 °FPartly sunny.9 mph94%30.04 "Hg6 mi
8:20 AM61 °FClear.8 mph100%30.04 "Hg5 mi
7:50 AM61 °FPartly sunny.8 mph94%30.04 "Hg5 mi
7:20 AM61 °FBroken clouds.6 mph100%30.04 "Hg5 mi
6:50 AM61 °FPartly cloudy.6 mph94%30.04 "Hg4 mi
6:20 AM61 °FPassing clouds.5 mph94%30.04 "Hg5 mi
5:50 AM61 °FClear.6 mph100%30.04 "Hg10 mi
5:20 AM61 °FClear.6 mph100%30.04 "Hg10 mi
4:50 AM61 °FClear.7 mph100%30.04 "Hg10 mi
4:20 AM61 °FPassing clouds.3 mph94%30.04 "HgN/A
3:50 AM61 °FPassing clouds.6 mph100%30.04 "HgN/A
3:20 AM61 °FPassing clouds.8 mph100%30.04 "HgN/A
2:50 AM63 °FSprinkles. Partly cloudy.8 mph94%30.04 "HgN/A
2:20 AM63 °FSprinkles. Partly cloudy.8 mph94%30.04 "HgN/A
1:50 AM63 °FSprinkles. Partly cloudy.5 mph94%30.04 "HgN/A
1:20 AM63 °FPassing clouds.3 mph94%30.01 "HgN/A
12:50 AM63 °FPartly cloudy.2 mph94%30.01 "HgN/A
12:20 AM63 °FPassing clouds.2 mph94%30.01 "HgN/A
Weather by CustomWeather, © 2014

See weather overviewHow to use our weather pages